Location: Poinsettia Observatory
(32.9673°N, 117.0346°W)
Time: 15:53:50
(UTC-08:00)

Daily predictions for brighter satellites

Satellite Brightness Start Highest point End
(mag) Time Altitude Azimuth Time Altitude Azimuth Time Altitude Azimuth
Meteor 1-25 Rocket 4.2 17:56:41 10° S 18:02:09 67° E 18:07:41 10° NNE
Iridium 4 Rocket 3.9 18:00:49 10° NNE 18:04:53 30° E 18:08:40 10° SE
Cosmos 1633 2.4 18:01:53 10° S 18:05:25 74° E 18:08:58 10° N
Cosmos 44 Rocket 3.5 18:04:13 10° NNW 18:09:12 54° ENE 18:14:14 10° SE
COSMO-SKYMED 1 3.8 18:13:12 10° N 18:17:21 45° WNW 18:21:29 10° SSW
Okean 3 3.4 18:14:03 10° N 18:18:14 82° E 18:22:25 10° S
Sich 1 Rocket 3.6 18:13:52 10° S 18:18:18 63° E 18:22:44 10° NNE
FENGYUN 3A 3.9 18:15:26 10° S 18:20:49 78° WSW 18:26:15 10° NNW
ALOS 2.7 18:16:37 10° S 18:21:14 68° W 18:25:54 10° NNW
Cosmos 1048 Rocket 4.2 18:16:12 10° SSW 18:21:32 78° WNW 18:26:49 10° NNE
Cosmos 1452 Rocket 3.6 18:18:15 10° NNW 18:23:31 82° WSW 18:28:45 10° SSE
FALCON 9 R/B 3.9 18:18:07 10° W 18:24:27 85° N 18:46:37 15° E
Tsikada Rocket 4.3 18:19:22 10° SSE 18:25:26 47° E 18:31:31 10° NNE
Gbstr 26 Del rocket 3.2 18:22:20 10° WSW 18:26:01 56° NW 18:29:45 10° NE
Cosmos 44 3.7 18:21:28 10° NNW 18:26:35 76° WSW 18:31:54 10° SSE
Okean 2 Rocket 3.6 18:25:30 10° SSE 18:29:28 34° E 18:33:28 10° NNE
ERS-2 2.6 18:27:52 10° SE 18:31:17 37° ENE 18:34:42 10° N
FengYun 1-2 T 4.3 18:27:44 10° SSE 18:33:06 57° ENE 18:38:29 10° N
Cosmos 921 Rocket 3.1 18:30:06 10° N 18:34:31 55° ENE 18:38:51 10° SSE
SPOT 3 Rocket 3.6 18:30:46 10° SSE 18:35:57 86° WSW 18:41:12 10° NNW
ARGOS Delta rocket 4.2 18:34:15 10° NNE 18:38:34 36° E 18:42:41 10° SSE
Cosmos 1464 Rocket 4.0 18:33:51 10° N 18:40:00 87° W 18:46:10 10° S
H-2A R/B 2.7 18:36:33 10° SSE 18:40:26 87° E 18:44:21 10° N
Cosmos 1420 Rocket 4.4 18:35:46 10° NNW 18:41:02 70° WSW 18:46:18 10° S
Centaur D-1A AC-32 4.0 18:38:44 10° WSW 18:43:10 55° S 18:54:57 17° E
SeaSat 1 3.7 18:44:27 19° ENE 18:45:22 20° NE 18:48:57 10° N
SL-16 R/B 2.7 18:41:34 10° NNW 18:47:09 62° WSW 18:52:42 10° S
GPS 2-05 Rocket1 2.5 18:47:02 10° WSW 18:50:14 83° NNW 18:51:17 38° ENE
COSMOS 2455 2.8 18:46:35 10° SSW 18:52:32 68° ESE 18:58:31 10° NNE
SJ-6B 3.0 18:49:00 10° SSE 18:52:36 45° ENE 18:56:17 10° N
Cosmos 2346 Rocket 4.4 18:56:06 10° S 19:02:17 72° E 19:08:25 10° N
HJ-1C 3.2 18:59:04 10° SSE 19:02:28 79° ENE 19:05:54 10° N
CZ-2D R/B 3.3 19:02:31 22° SSE 19:04:51 55° ENE 19:08:40 10° N
USA 215 3.2 18:59:05 10° NE 19:05:34 86° SE 19:12:06 10° SW
Envisat 3.1 19:01:13 10° SSE 19:06:07 52° ENE 19:11:02 10° N
Cosmos 1603 3.7 19:00:38 10° NNW 19:06:11 57° ENE 19:09:50 21° SE
BREEZE-M DEB (TANK) 3.4 19:04:17 10° WSW 19:07:00 61° NW 19:13:51 10° NE
Sakura Rocket 4.1 19:03:24 10° WSW 19:08:34 59° S 19:11:49 30° ESE
ATLAS CENTAUR R/B 3.5 19:09:45 10° N 19:10:57 15° NNE 19:10:57 15° NNE
Meteor 1-4 Rocket 3.0 19:09:49 10° SSW 19:13:15 59° W 19:16:47 10° N
Cosmos 2263 Rocket 2.0 19:08:06 10° S 19:13:37 71° ESE 19:19:11 10° NNE
Cosmos 1975 Rocket 3.4 19:09:14 10° NNW 19:13:39 67° W 19:18:05 10° S
Cosmos 494 Rocket 4.3 19:09:45 10° SSW 19:14:55 68° WNW 19:20:07 10° N
Meteor 1-13 Rocket 4.0 19:12:35 10° N 19:18:06 78° E 19:23:37 10° SSE
Tiangong 2 4.1 19:25:49 10° WSW 19:26:53 11° SW 19:27:58 10° SSW
Cosmos 1110 Rocket 3.9 19:21:49 10° NNW 19:27:09 85° ENE 19:29:49 30° SSE
Cosmos 1634 Rocket 3.9 19:21:56 10° N 19:28:02 63° E 19:32:07 22° SSE
Resurs 01 Rocket 2.9 19:30:26 27° NNE 19:30:26 27° NNE 19:32:37 10° N
Thor Agena Rocket 4.1 19:24:21 10° N 19:29:17 57° WNW 19:34:13 10° SSW
OAO 2 Rocket 3.2 19:32:58 10° WNW 19:37:55 76° N 19:37:55 76° N
Cosmos 2142 Rocket 4.4 19:32:59 10° N 19:39:15 67° E 19:40:35 53° SE
Cosmos 1536 3.4 19:36:11 10° SSW 19:40:09 57° W 19:41:08 43° NNW
Lacrosse 5 rocket 2.9 19:40:37 10° SW 19:42:18 25° SW 19:42:18 25° SW
Meteor 1-5 Rocket 4.5 19:39:04 10° SSW 19:44:53 73° W 19:50:52 10° N
Meteor 2-4 Rocket 3.9 19:42:03 10° NNW 19:47:43 68° W 19:52:23 15° S
OAO 1 4.4 19:42:14 10° WNW 19:47:42 87° SW 19:47:42 87° SW
CZ-4C R/B 3.1 19:55:42 10° NNW 20:02:25 57° NE 20:02:25 57° NE
Cosmos 1943 3.7 20:04:51 10° NNW 20:09:26 57° NW 20:09:26 57° NW
SeaSat 1 4.0 20:24:15 32° WNW 20:24:15 32° WNW 20:27:16 10° NW
